Time,TemperatureF,DewpointF,PressureIn,WindDirection,WindDirectionDegrees,WindSpeedMPH,WindSpeedGustMPH,Humidity,HourlyPrecipIn,Conditions,Clouds,dailyrainin,SoftwareType,DateUTC
2013-11-24 11:43:00,19.0,14.0,30.53,NNW,338,1.0,8.0,81,0.00,,,0.00,,2013-11-24 16:43:00,
2013-11-24 11:53:00,19.0,14.0,30.53,NNW,338,1.0,8.0,81,0.00,,,0.00,,2013-11-24 16:53:00,
2013-11-24 12:23:00,20.0,13.0,30.51,NW,324,1.0,7.0,73,0.00,,,0.00,,2013-11-24 17:23:00,
2013-11-24 12:43:00,20.0,12.0,30.50,WNW,296,2.0,11.0,70,0.00,,,0.00,,2013-11-24 17:43:00,
2013-11-24 12:52:00,20.0,12.0,30.50,West,276,3.0,11.0,70,0.00,,,0.00,,2013-11-24 17:52:00,
2013-11-24 13:22:00,21.0,11.0,30.48,South,190,2.0,9.0,66,0.00,,,0.00,,2013-11-24 18:22:00,
2013-11-24 13:53:00,21.0,12.0,30.48,West,268,6.0,10.0,67,0.00,,,0.00,,2013-11-24 18:53:00,
2013-11-24 14:22:00,20.0,12.0,30.47,WNW,284,3.0,9.0,71,0.00,,,0.00,,2013-11-24 19:22:00,
2013-11-24 14:42:00,21.0,13.0,30.47,NW,323,2.0,4.0,70,0.00,,,0.00,,2013-11-24 19:42:00,
2013-11-24 14:52:00,21.0,13.0,30.47,NW,323,2.0,4.0,70,0.00,,,0.00,,2013-11-24 19:52:00,
2013-11-24 15:22:00,22.0,13.0,30.46,SW,225,7.0,8.0,68,0.00,,,0.00,,2013-11-24 20:22:00,
2013-11-24 15:52:00,20.0,14.0,30.45,West,271,6.0,10.0,78,0.00,,,0.00,,2013-11-24 20:52:00,
2013-11-24 16:11:00,21.0,14.0,30.45,West,265,0.0,8.0,75,0.00,,,0.00,,2013-11-24 21:11:00,
2013-11-24 16:22:00,21.0,13.0,30.44,South,171,2.0,10.0,70,0.00,,,0.00,,2013-11-24 21:22:00,
2013-11-24 16:43:00,21.0,12.0,30.43,WSW,241,3.0,9.0,67,0.00,,,0.00,,2013-11-24 21:43:00,
2013-11-24 16:54:00,21.0,12.0,30.43,South,181,3.0,9.0,67,0.00,,,0.00,,2013-11-24 21:54:00,
2013-11-24 17:23:00,21.0,11.0,30.41,SW,223,4.0,10.0,65,0.00,,,0.00,,2013-11-24 22:23:00,
2013-11-24 17:43:00,21.0,11.0,30.40,SSE,165,8.0,10.0,65,0.00,,,0.00,,2013-11-24 22:43:00,
2013-11-24 17:53:00,21.0,11.0,30.40,South,183,3.0,10.0,65,0.00,,,0.00,,2013-11-24 22:53:00,
2013-11-24 18:22:00,21.0,12.0,30.39,South,176,3.0,10.0,67,0.00,,,0.00,,2013-11-24 23:22:00,
2013-11-24 18:42:00,21.0,12.0,30.38,South,176,5.0,9.0,67,0.00,,,0.00,,2013-11-24 23:42:00,
2013-11-24 18:52:00,20.0,11.0,30.37,SSE,164,7.0,10.0,69,0.00,,,0.00,,2013-11-24 23:52:00,
2013-11-24 19:22:00,20.0,11.0,30.35,South,186,6.0,14.0,67,0.00,,,0.00,,2013-11-25 00:22:00,
2013-11-24 19:52:00,20.0,11.0,30.32,South,175,4.0,14.0,66,0.00,,,0.00,,2013-11-25 00:52:00,
2013-11-24 20:22:00,19.0,11.0,30.31,SSE,167,8.0,14.0,70,0.00,,,0.00,,2013-11-25 01:22:00,
2013-11-24 20:32:00,19.0,11.0,30.31,SSE,167,8.0,14.0,70,0.00,,,0.00,,2013-11-25 01:32:00,
2013-11-24 20:42:00,19.0,11.0,30.31,SSE,167,8.0,14.0,70,0.00,,,0.00,,2013-11-25 01:42:00,
2013-11-24 20:53:00,20.0,11.0,30.29,SSE,158,3.0,12.0,67,0.00,,,0.00,,2013-11-25 01:53:00,
2013-11-24 21:22:00,20.0,11.0,30.27,South,180,10.0,18.0,66,0.00,,,0.00,,2013-11-25 02:22:00,
2013-11-24 21:43:00,20.0,11.0,30.24,South,176,3.0,17.0,66,0.00,,,0.00,,2013-11-25 02:43:00,
2013-11-24 21:52:00,20.0,11.0,30.24,SSW,192,9.0,17.0,66,0.00,,,0.00,,2013-11-25 02:52:00,
2013-11-24 22:22:00,21.0,12.0,30.22,SSE,150,9.0,16.0,67,0.00,,,0.00,,2013-11-25 03:22:00,
2013-11-24 22:53:00,21.0,11.0,30.19,South,186,7.0,18.0,66,0.00,,,0.00,,2013-11-25 03:53:00,
2013-11-24 23:13:00,21.0,12.0,30.19,SSE,165,10.0,14.0,67,0.00,,,0.00,,2013-11-25 04:13:00,
2013-11-24 23:23:00,21.0,12.0,30.19,SSE,165,10.0,14.0,67,0.00,,,0.00,,2013-11-25 04:23:00,
2013-11-24 23:53:00,22.0,13.0,30.16,South,187,10.0,18.0,68,0.00,,,0.00,,2013-11-25 04:53:00,